Year,Month,Day,Hour,Minute,Value (Times are PST for temperature in C)
2016,04,08,00,00,11.20
2016,04,08,00,01,11.20
2016,04,08,00,02,11.10
2016,04,08,00,03,11.10
2016,04,08,00,04,11.10
2016,04,08,00,05,11.10
2016,04,08,00,06,11.10
2016,04,08,00,07,11.10
2016,04,08,00,08,11.10
2016,04,08,00,09,11.10
2016,04,08,00,10,11.00
2016,04,08,00,11,11.00
2016,04,08,00,12,11.00
2016,04,08,00,13,11.00
2016,04,08,00,14,10.90
2016,04,08,00,15,10.90
2016,04,08,00,16,10.90
2016,04,08,00,17,10.90
2016,04,08,00,18,10.90
2016,04,08,00,19,10.90
2016,04,08,00,20,10.90
2016,04,08,00,21,10.90
2016,04,08,00,22,10.90
2016,04,08,00,23,10.80
2016,04,08,00,24,10.80
2016,04,08,00,25,10.80
2016,04,08,00,26,10.80
2016,04,08,00,27,10.80
2016,04,08,00,28,10.70
2016,04,08,00,29,10.70
2016,04,08,00,30,10.70
2016,04,08,00,31,10.70
2016,04,08,00,32,10.60
2016,04,08,00,33,10.60
2016,04,08,00,34,10.60
2016,04,08,00,35,10.50
2016,04,08,00,36,10.50
2016,04,08,00,37,10.50
2016,04,08,00,38,10.40
2016,04,08,00,39,10.40
2016,04,08,00,40,10.40
2016,04,08,00,41,10.40
2016,04,08,00,42,10.40
2016,04,08,00,43,10.40
2016,04,08,00,44,10.30
2016,04,08,00,45,10.30
2016,04,08,00,46,10.30
2016,04,08,00,47,10.30
2016,04,08,00,48,10.30
2016,04,08,00,49,10.30
2016,04,08,00,50,10.30
2016,04,08,00,51,10.30
2016,04,08,00,52,10.20
2016,04,08,00,53,10.20
2016,04,08,00,54,10.20
2016,04,08,00,55,10.20
2016,04,08,00,56,10.20
2016,04,08,00,57,10.20
2016,04,08,00,58,10.20
2016,04,08,00,59,10.20
2016,04,08,01,00,10.10
2016,04,08,01,01,10.10
2016,04,08,01,02,10.10
2016,04,08,01,03,10.10
2016,04,08,01,04,10.10
2016,04,08,01,05,10.10
2016,04,08,01,06,10.10
2016,04,08,01,07,10.00
2016,04,08,01,08,10.00
2016,04,08,01,09,10.00
2016,04,08,01,10,9.90
2016,04,08,01,11,9.90
2016,04,08,01,12,9.90
2016,04,08,01,13,9.90
2016,04,08,01,14,9.90
2016,04,08,01,15,9.90
2016,04,08,01,16,9.80
2016,04,08,01,17,9.80
2016,04,08,01,18,9.80
2016,04,08,01,19,9.80
2016,04,08,01,20,9.80
2016,04,08,01,21,9.80
2016,04,08,01,22,9.80
2016,04,08,01,23,9.80
2016,04,08,01,24,9.80
2016,04,08,01,25,9.80
2016,04,08,01,26,9.70
2016,04,08,01,27,9.70
2016,04,08,01,28,9.70
2016,04,08,01,29,9.70
2016,04,08,01,30,9.70
2016,04,08,01,31,9.70
2016,04,08,01,32,9.70
2016,04,08,01,33,9.70
2016,04,08,01,34,9.70
2016,04,08,01,35,9.70
2016,04,08,01,36,9.70
2016,04,08,01,37,9.70
2016,04,08,01,38,9.70
2016,04,08,01,39,9.70
2016,04,08,01,40,9.70
2016,04,08,01,41,9.70
2016,04,08,01,42,9.70
2016,04,08,01,43,9.70
2016,04,08,01,44,9.60
2016,04,08,01,45,9.60
2016,04,08,01,46,9.60
2016,04,08,01,47,9.60
2016,04,08,01,48,9.60
2016,04,08,01,49,9.60
2016,04,08,01,50,9.60
2016,04,08,01,51,9.60
2016,04,08,01,52,9.60
2016,04,08,01,53,9.60
2016,04,08,01,54,9.60
2016,04,08,01,55,9.60
2016,04,08,01,56,9.60
2016,04,08,01,57,9.60
2016,04,08,01,58,9.60
2016,04,08,01,59,9.60
2016,04,08,02,00,9.60
2016,04,08,02,01,9.60
2016,04,08,02,02,9.60
2016,04,08,02,03,9.60
2016,04,08,02,04,9.60
2016,04,08,02,05,9.50
2016,04,08,02,06,9.50
2016,04,08,02,07,9.40
2016,04,08,02,08,9.40
2016,04,08,02,09,9.40
2016,04,08,02,10,9.40
2016,04,08,02,11,9.40
2016,04,08,02,12,9.40
2016,04,08,02,13,9.30
2016,04,08,02,14,9.30
2016,04,08,02,15,9.30
2016,04,08,02,16,9.30
2016,04,08,02,17,9.30
2016,04,08,02,18,9.30
2016,04,08,02,19,9.30
2016,04,08,02,20,9.30
2016,04,08,02,21,9.30
2016,04,08,02,22,9.30
2016,04,08,02,23,9.30
2016,04,08,02,24,9.30
2016,04,08,02,25,9.30
2016,04,08,02,26,9.30
2016,04,08,02,27,9.30
2016,04,08,02,28,9.30
2016,04,08,02,29,9.20
2016,04,08,02,30,9.20
2016,04,08,02,31,9.20
2016,04,08,02,32,9.20
2016,04,08,02,33,9.20
2016,04,08,02,34,9.20
2016,04,08,02,35,9.20
2016,04,08,02,36,9.20
2016,04,08,02,37,9.20
2016,04,08,02,38,9.20
2016,04,08,02,39,9.20
2016,04,08,02,40,9.20
2016,04,08,02,41,9.20
2016,04,08,02,42,9.20
2016,04,08,02,43,9.20
2016,04,08,02,44,9.10
2016,04,08,02,45,9.10
2016,04,08,02,46,9.10
2016,04,08,02,47,9.10
2016,04,08,02,48,9.10
2016,04,08,02,49,9.10
2016,04,08,02,50,9.10
2016,04,08,02,51,9.00
2016,04,08,02,52,9.00
2016,04,08,02,53,9.00
2016,04,08,02,54,9.00
2016,04,08,02,55,9.00
2016,04,08,02,56,9.00
2016,04,08,02,57,8.90
2016,04,08,02,58,8.90
2016,04,08,02,59,8.90
2016,04,08,03,00,8.90
2016,04,08,03,01,8.90
2016,04,08,03,02,8.90
2016,04,08,03,03,8.90
2016,04,08,03,04,8.90
2016,04,08,03,05,8.90
2016,04,08,03,06,8.90
2016,04,08,03,07,8.80
2016,04,08,03,08,8.80
2016,04,08,03,09,8.80
2016,04,08,03,10,8.80
2016,04,08,03,11,8.80
2016,04,08,03,12,8.80
2016,04,08,03,13,8.80
2016,04,08,03,14,8.80
2016,04,08,03,15,8.80
2016,04,08,03,16,8.70
2016,04,08,03,17,8.70
2016,04,08,03,18,8.70
2016,04,08,03,19,8.70
2016,04,08,03,20,8.70
2016,04,08,03,21,8.70
2016,04,08,03,22,8.70
2016,04,08,03,23,8.70
2016,04,08,03,24,8.60
2016,04,08,03,25,8.60
2016,04,08,03,26,8.60
2016,04,08,03,27,8.60
2016,04,08,03,28,8.60
2016,04,08,03,29,8.60
2016,04,08,03,30,8.60
2016,04,08,03,31,8.60
2016,04,08,03,32,8.60
2016,04,08,03,33,8.60
2016,04,08,03,34,8.60
2016,04,08,03,35,8.60
2016,04,08,03,36,8.50
2016,04,08,03,37,8.50
2016,04,08,03,38,8.50
2016,04,08,03,39,8.40
2016,04,08,03,40,8.40
2016,04,08,03,41,8.40
2016,04,08,03,42,8.40
2016,04,08,03,43,8.40
2016,04,08,03,44,8.30
2016,04,08,03,45,8.30
2016,04,08,03,46,8.30
2016,04,08,03,47,8.30
2016,04,08,03,48,8.30
2016,04,08,03,49,8.30
2016,04,08,03,50,8.30
2016,04,08,03,51,8.30
2016,04,08,03,52,8.30
2016,04,08,03,53,8.20
2016,04,08,03,54,8.20
2016,04,08,03,55,8.20
2016,04,08,03,56,8.20
2016,04,08,03,57,8.20
2016,04,08,03,58,8.20
2016,04,08,03,59,8.20
2016,04,08,04,00,8.20
2016,04,08,04,01,8.20
2016,04,08,04,02,8.20
2016,04,08,04,03,8.20
2016,04,08,04,04,8.20
2016,04,08,04,05,8.20
2016,04,08,04,06,8.20
2016,04,08,04,07,8.20
2016,04,08,04,08,8.20
2016,04,08,04,09,8.20
2016,04,08,04,10,8.20
2016,04,08,04,11,8.20
2016,04,08,04,12,8.20
2016,04,08,04,13,8.20
2016,04,08,04,14,8.20
2016,04,08,04,15,8.20
2016,04,08,04,16,8.10
2016,04,08,04,17,8.10
2016,04,08,04,18,8.10
2016,04,08,04,19,8.10
2016,04,08,04,20,8.10
2016,04,08,04,21,8.00
2016,04,08,04,22,8.00
2016,04,08,04,23,8.00
2016,04,08,04,24,8.00
2016,04,08,04,25,7.90
2016,04,08,04,26,7.90
2016,04,08,04,27,7.90
2016,04,08,04,28,7.90
2016,04,08,04,29,7.80
2016,04,08,04,30,7.80
2016,04,08,04,31,7.80
2016,04,08,04,32,7.80
2016,04,08,04,33,7.80
2016,04,08,04,34,7.80
2016,04,08,04,35,7.80
2016,04,08,04,36,7.80
2016,04,08,04,37,7.70
2016,04,08,04,38,7.70
2016,04,08,04,39,7.70
2016,04,08,04,40,7.70
2016,04,08,04,41,7.70
2016,04,08,04,42,7.70
2016,04,08,04,43,7.70
2016,04,08,04,44,7.70
2016,04,08,04,45,7.70
2016,04,08,04,46,7.70
2016,04,08,04,47,7.70
2016,04,08,04,48,7.70
2016,04,08,04,49,7.70
2016,04,08,04,50,7.70
2016,04,08,04,51,7.70
2016,04,08,04,52,7.70
2016,04,08,04,53,7.70
2016,04,08,04,54,7.70
2016,04,08,04,55,7.70
2016,04,08,04,56,7.70
2016,04,08,04,57,7.70
2016,04,08,04,58,7.70
2016,04,08,04,59,7.70
2016,04,08,05,00,7.70
2016,04,08,05,01,7.70
2016,04,08,05,02,7.70
2016,04,08,05,03,7.60
2016,04,08,05,04,7.60
2016,04,08,05,05,7.60
2016,04,08,05,06,7.60
2016,04,08,05,07,7.60
2016,04,08,05,08,7.60
2016,04,08,05,09,7.60
2016,04,08,05,10,7.60
2016,04,08,05,11,7.60
2016,04,08,05,12,7.60
2016,04,08,05,13,7.60
2016,04,08,05,14,7.60
2016,04,08,05,15,7.60
2016,04,08,05,16,7.60
2016,04,08,05,17,7.50
2016,04,08,05,18,7.50
2016,04,08,05,19,7.50
2016,04,08,05,20,7.50
2016,04,08,05,21,7.50
2016,04,08,05,22,7.50
2016,04,08,05,23,7.50
2016,04,08,05,24,7.50
2016,04,08,05,25,7.50
2016,04,08,05,26,7.50
2016,04,08,05,27,7.50
2016,04,08,05,28,7.60
2016,04,08,05,29,7.60
2016,04,08,05,30,7.60
2016,04,08,05,31,7.50
2016,04,08,05,32,7.50
2016,04,08,05,33,7.50
2016,04,08,05,34,7.40
2016,04,08,05,35,7.40
2016,04,08,05,36,7.30
2016,04,08,05,37,7.30
2016,04,08,05,38,7.30
2016,04,08,05,39,7.30
2016,04,08,05,40,7.30
2016,04,08,05,41,7.20
2016,04,08,05,42,7.20
2016,04,08,05,43,7.20
2016,04,08,05,44,7.20
2016,04,08,05,45,7.20
2016,04,08,05,46,7.20
2016,04,08,05,47,7.20
2016,04,08,05,48,7.20
2016,04,08,05,49,7.20
2016,04,08,05,50,7.20
2016,04,08,05,51,7.20
2016,04,08,05,52,7.20
2016,04,08,05,53,7.20
2016,04,08,05,54,7.20
2016,04,08,05,55,7.20
2016,04,08,05,56,7.30
2016,04,08,05,57,7.30
2016,04,08,05,58,7.30
2016,04,08,05,59,7.30
2016,04,08,06,00,7.30
2016,04,08,06,01,7.30
2016,04,08,06,02,7.30
2016,04,08,06,03,7.30
2016,04,08,06,04,7.30
2016,04,08,06,05,7.30
2016,04,08,06,06,7.30
2016,04,08,06,07,7.30
2016,04,08,06,08,7.30
2016,04,08,06,09,7.30
2016,04,08,06,10,7.30
2016,04,08,06,11,7.30
2016,04,08,06,12,7.30
2016,04,08,06,13,7.20
2016,04,08,06,14,7.20
2016,04,08,06,15,7.20
2016,04,08,06,16,7.20
2016,04,08,06,17,7.20
2016,04,08,06,18,7.10
2016,04,08,06,19,7.10
2016,04,08,06,20,7.10
2016,04,08,06,21,7.10
2016,04,08,06,22,7.10
2016,04,08,06,23,7.00
2016,04,08,06,24,7.00
2016,04,08,06,25,7.00
2016,04,08,06,26,7.00
2016,04,08,06,27,7.00
2016,04,08,06,28,7.00
2016,04,08,06,29,7.00
2016,04,08,06,30,7.00
2016,04,08,06,31,7.00
2016,04,08,06,32,7.00
2016,04,08,06,33,7.10
2016,04,08,06,34,7.10
2016,04,08,06,35,7.10
2016,04,08,06,36,7.10
2016,04,08,06,37,7.20
2016,04,08,06,38,7.20
2016,04,08,06,39,7.20
2016,04,08,06,40,7.20
2016,04,08,06,41,7.20
2016,04,08,06,42,7.20
2016,04,08,06,43,7.20
2016,04,08,06,44,7.20
2016,04,08,06,45,7.20
2016,04,08,06,46,7.20
2016,04,08,06,47,7.20
2016,04,08,06,48,7.20
2016,04,08,06,49,7.20
2016,04,08,06,50,7.20
2016,04,08,06,51,7.30
2016,04,08,06,52,7.30
2016,04,08,06,53,7.30
2016,04,08,06,54,7.30
2016,04,08,06,55,7.30
2016,04,08,06,56,7.30
2016,04,08,06,57,7.30
2016,04,08,06,58,7.30
2016,04,08,06,59,7.30
2016,04,08,07,00,7.30
2016,04,08,07,01,7.30
2016,04,08,07,02,7.30
2016,04,08,07,03,7.30
2016,04,08,07,04,7.40
2016,04,08,07,05,7.40
2016,04,08,07,06,7.40
2016,04,08,07,07,7.40
2016,04,08,07,08,7.40
2016,04,08,07,09,7.40
2016,04,08,07,10,7.40
2016,04,08,07,11,7.40
2016,04,08,07,12,7.40
2016,04,08,07,13,7.40
2016,04,08,07,14,7.40
2016,04,08,07,15,7.50
2016,04,08,07,16,7.50
2016,04,08,07,17,7.50
2016,04,08,07,18,7.50
2016,04,08,07,19,7.50
2016,04,08,07,20,7.60
2016,04,08,07,21,7.60
2016,04,08,07,22,7.60
2016,04,08,07,23,7.60
2016,04,08,07,24,7.70
2016,04,08,07,25,7.70
2016,04,08,07,26,7.70
2016,04,08,07,27,7.70
2016,04,08,07,28,7.80
2016,04,08,07,29,7.80
2016,04,08,07,30,7.80
2016,04,08,07,31,7.90
2016,04,08,07,32,8.00
2016,04,08,07,33,8.00
2016,04,08,07,34,8.10
2016,04,08,07,35,8.10
2016,04,08,07,36,8.20
2016,04,08,07,37,8.20
2016,04,08,07,38,8.30
2016,04,08,07,39,8.30
2016,04,08,07,40,8.40
2016,04,08,07,41,8.50
2016,04,08,07,42,8.50
2016,04,08,07,43,8.60
2016,04,08,07,44,8.70
2016,04,08,07,45,8.80
2016,04,08,07,46,8.90
2016,04,08,07,47,9.00
2016,04,08,07,48,9.10
2016,04,08,07,49,9.10
2016,04,08,07,50,9.20
2016,04,08,07,51,9.30
2016,04,08,07,52,9.40
2016,04,08,07,53,9.50
2016,04,08,07,54,9.50
2016,04,08,07,55,9.60
2016,04,08,07,56,9.70
2016,04,08,07,57,9.80
2016,04,08,07,58,9.90
2016,04,08,07,59,10.10
2016,04,08,08,00,10.10
2016,04,08,08,01,10.20
2016,04,08,08,02,10.30
2016,04,08,08,03,10.40
2016,04,08,08,04,10.50
2016,04,08,08,05,10.60
2016,04,08,08,06,10.70
2016,04,08,08,07,10.70
2016,04,08,08,08,10.80
2016,04,08,08,09,10.90
2016,04,08,08,10,10.90
2016,04,08,08,11,11.00
2016,04,08,08,12,11.10
2016,04,08,08,13,11.10
2016,04,08,08,14,11.20
2016,04,08,08,15,11.30
2016,04,08,08,16,11.40
2016,04,08,08,17,11.50
2016,04,08,08,18,11.50
2016,04,08,08,19,11.60
2016,04,08,08,20,11.70
2016,04,08,08,21,11.80
2016,04,08,08,22,11.90
2016,04,08,08,23,12.00
2016,04,08,08,24,12.10
2016,04,08,08,25,12.20
2016,04,08,08,26,12.30
2016,04,08,08,27,12.30
2016,04,08,08,28,12.40
2016,04,08,08,29,12.50
2016,04,08,08,30,12.60
2016,04,08,08,31,12.70
2016,04,08,08,32,12.70
2016,04,08,08,33,12.80
2016,04,08,08,34,12.90
2016,04,08,08,35,13.10
2016,04,08,08,36,13.20
2016,04,08,08,37,13.30
2016,04,08,08,38,13.30
2016,04,08,08,39,13.40
2016,04,08,08,40,13.40
2016,04,08,08,41,13.40
2016,04,08,08,42,13.50
2016,04,08,08,43,13.50
2016,04,08,08,44,13.50
2016,04,08,08,45,13.60
2016,04,08,08,46,13.60
2016,04,08,08,47,13.60
2016,04,08,08,48,13.70
2016,04,08,08,49,13.80
2016,04,08,08,50,13.80
2016,04,08,08,51,13.90
2016,04,08,08,52,14.00
2016,04,08,08,53,14.00
2016,04,08,08,54,14.20
2016,04,08,08,55,14.20
2016,04,08,08,56,14.30
2016,04,08,08,57,14.30
2016,04,08,08,58,14.40
2016,04,08,08,59,14.40
2016,04,08,09,00,14.30
2016,04,08,09,01,14.30
2016,04,08,09,02,14.20
2016,04,08,09,03,14.20
2016,04,08,09,04,14.10
2016,04,08,09,05,14.00
2016,04,08,09,06,13.90
2016,04,08,09,07,13.80
2016,04,08,09,08,13.80
2016,04,08,09,09,13.80
2016,04,08,09,10,13.80
2016,04,08,09,11,13.70
2016,04,08,09,12,13.80
2016,04,08,09,13,13.80
2016,04,08,09,14,13.80
2016,04,08,09,15,13.80
2016,04,08,09,16,13.90
2016,04,08,09,17,13.90
2016,04,08,09,18,13.90
2016,04,08,09,19,13.90
2016,04,08,09,20,13.90
2016,04,08,09,21,13.90
2016,04,08,09,22,13.90
2016,04,08,09,23,13.90
2016,04,08,09,24,13.90
2016,04,08,09,25,13.90
2016,04,08,09,26,14.00
2016,04,08,09,27,14.10
2016,04,08,09,28,14.10
2016,04,08,09,29,14.20
2016,04,08,09,30,14.20
2016,04,08,09,31,14.30
2016,04,08,09,32,14.40
2016,04,08,09,33,14.40
2016,04,08,09,34,14.50
2016,04,08,09,35,14.50
2016,04,08,09,36,14.50
2016,04,08,09,37,14.60
2016,04,08,09,38,14.60
2016,04,08,09,39,14.70
2016,04,08,09,40,14.80
2016,04,08,09,41,14.90
2016,04,08,09,42,14.90
2016,04,08,09,43,14.90
2016,04,08,09,44,14.90
2016,04,08,09,45,14.90
2016,04,08,09,46,14.90
2016,04,08,09,47,14.90
2016,04,08,09,48,14.90
2016,04,08,09,49,14.80
2016,04,08,09,50,14.80
2016,04,08,09,51,14.80
2016,04,08,09,52,14.80
2016,04,08,09,53,14.70
2016,04,08,09,54,14.80
2016,04,08,09,55,14.80
2016,04,08,09,56,14.90
2016,04,08,09,57,15.00
2016,04,08,09,58,15.00
2016,04,08,09,59,15.00
2016,04,08,10,00,15.10
2016,04,08,10,01,15.20
2016,04,08,10,02,15.30
2016,04,08,10,03,15.30
2016,04,08,10,04,15.40
2016,04,08,10,05,15.40
2016,04,08,10,06,15.40
2016,04,08,10,07,15.40
2016,04,08,10,08,15.30
2016,04,08,10,09,15.30
2016,04,08,10,10,15.40
2016,04,08,10,11,15.40
2016,04,08,10,12,15.50
2016,04,08,10,13,15.60
2016,04,08,10,14,15.60
2016,04,08,10,15,15.70
2016,04,08,10,16,15.80
2016,04,08,10,17,15.90
2016,04,08,10,18,16.00
2016,04,08,10,19,16.00
2016,04,08,10,20,16.10
2016,04,08,10,21,16.20
2016,04,08,10,22,16.20
2016,04,08,10,23,16.30
2016,04,08,10,24,16.30
2016,04,08,10,25,16.30
2016,04,08,10,26,16.40
2016,04,08,10,27,16.40
2016,04,08,10,28,16.50
2016,04,08,10,29,16.60
2016,04,08,10,30,16.70
2016,04,08,10,31,16.80
2016,04,08,10,32,16.80
2016,04,08,10,33,16.90
2016,04,08,10,34,16.90
2016,04,08,10,35,16.80
2016,04,08,10,36,16.80
2016,04,08,10,37,16.80
2016,04,08,10,38,16.80
2016,04,08,10,39,16.80
2016,04,08,10,40,16.80
2016,04,08,10,41,16.90
2016,04,08,10,42,16.90
2016,04,08,10,43,16.80
2016,04,08,10,44,16.80
2016,04,08,10,45,16.80
2016,04,08,10,46,16.80
2016,04,08,10,47,16.90
2016,04,08,10,48,16.90
2016,04,08,10,49,16.90
2016,04,08,10,50,17.00
2016,04,08,10,51,17.00
2016,04,08,10,52,17.00
2016,04,08,10,53,17.00
2016,04,08,10,54,16.90
2016,04,08,10,55,16.90
2016,04,08,10,56,16.80
2016,04,08,10,57,16.80
2016,04,08,10,58,16.80
2016,04,08,10,59,16.80
2016,04,08,11,00,16.80
2016,04,08,11,01,16.80
2016,04,08,11,02,16.80
2016,04,08,11,03,16.80
2016,04,08,11,04,16.80
2016,04,08,11,05,16.90
2016,04,08,11,06,17.00
2016,04,08,11,07,17.00
2016,04,08,11,08,17.10
2016,04,08,11,09,17.10
2016,04,08,11,10,17.20
2016,04,08,11,11,17.20
2016,04,08,11,12,17.30
2016,04,08,11,13,17.40
2016,04,08,11,14,17.40
2016,04,08,11,15,17.50
2016,04,08,11,16,17.60
2016,04,08,11,17,17.60
2016,04,08,11,18,17.60
2016,04,08,11,19,17.50
2016,04,08,11,20,17.60
2016,04,08,11,21,17.60
2016,04,08,11,22,17.60
2016,04,08,11,23,17.70
2016,04,08,11,24,17.70
2016,04,08,11,25,17.80
2016,04,08,11,26,17.80
2016,04,08,11,27,17.80
2016,04,08,11,28,17.80
2016,04,08,11,29,17.90
2016,04,08,11,30,18.00
2016,04,08,11,31,18.10
2016,04,08,11,32,18.20
2016,04,08,11,33,18.20
2016,04,08,11,34,18.20
2016,04,08,11,35,18.20
2016,04,08,11,36,18.20
2016,04,08,11,37,18.00
2016,04,08,11,38,17.90
2016,04,08,11,39,17.90
2016,04,08,11,40,17.80
2016,04,08,11,41,17.80
2016,04,08,11,42,17.70
2016,04,08,11,43,17.70
2016,04,08,11,44,17.60
2016,04,08,11,45,17.60
2016,04,08,11,46,17.50
2016,04,08,11,47,17.50
2016,04,08,11,48,17.50
2016,04,08,11,49,17.50
2016,04,08,11,50,17.50
2016,04,08,11,51,17.60
2016,04,08,11,52,17.60
2016,04,08,11,53,17.70
2016,04,08,11,54,17.80
2016,04,08,11,55,17.90
2016,04,08,11,56,18.00
2016,04,08,11,57,18.10
2016,04,08,11,58,18.10
2016,04,08,11,59,18.10
2016,04,08,12,00,18.10
2016,04,08,12,01,18.10
2016,04,08,12,02,18.20
2016,04,08,12,03,18.20
2016,04,08,12,04,18.30
2016,04,08,12,05,18.40
2016,04,08,12,06,18.50
2016,04,08,12,07,18.60
2016,04,08,12,08,18.70
2016,04,08,12,09,18.70
2016,04,08,12,10,18.70
2016,04,08,12,11,18.70
2016,04,08,12,12,18.70
2016,04,08,12,13,18.80
2016,04,08,12,14,18.90
2016,04,08,12,15,19.10
2016,04,08,12,16,19.20
2016,04,08,12,17,19.30
2016,04,08,12,18,19.40
2016,04,08,12,19,19.50
2016,04,08,12,20,19.60
2016,04,08,12,21,19.50
2016,04,08,12,22,19.40
2016,04,08,12,23,19.40
2016,04,08,12,24,19.40
2016,04,08,12,25,19.40
2016,04,08,12,26,19.40
2016,04,08,12,27,19.30
2016,04,08,12,28,19.20
2016,04,08,12,29,19.10
2016,04,08,12,30,19.10
2016,04,08,12,31,19.10
2016,04,08,12,32,19.10
2016,04,08,12,33,19.10
2016,04,08,12,34,19.10
2016,04,08,12,35,19.10
2016,04,08,12,36,18.90
2016,04,08,12,37,18.90
2016,04,08,12,38,18.80
2016,04,08,12,39,18.80
2016,04,08,12,40,18.80
2016,04,08,12,41,18.80
2016,04,08,12,42,18.70
2016,04,08,12,43,18.60
2016,04,08,12,44,18.50
2016,04,08,12,45,18.60
2016,04,08,12,46,18.60
2016,04,08,12,47,18.50
2016,04,08,12,48,18.50
2016,04,08,12,49,18.60
2016,04,08,12,50,18.60
2016,04,08,12,51,18.60
2016,04,08,12,52,18.60
2016,04,08,12,53,18.60
2016,04,08,12,54,18.60
2016,04,08,12,55,18.60
2016,04,08,12,56,18.60
2016,04,08,12,57,18.60
2016,04,08,12,58,18.60
2016,04,08,12,59,18.70
2016,04,08,13,00,18.70
2016,04,08,13,01,18.80
2016,04,08,13,02,19.00
2016,04,08,13,03,19.10
2016,04,08,13,04,19.10
2016,04,08,13,05,19.10
2016,04,08,13,06,19.20
2016,04,08,13,07,19.20
2016,04,08,13,08,19.20
2016,04,08,13,09,19.20
2016,04,08,13,10,19.20
2016,04,08,13,11,19.20
2016,04,08,13,12,19.20
2016,04,08,13,13,19.30
2016,04,08,13,14,19.30
2016,04,08,13,15,19.40
2016,04,08,13,16,19.40
2016,04,08,13,17,19.50
2016,04,08,13,18,19.60
2016,04,08,13,19,19.60
2016,04,08,13,20,19.70
2016,04,08,13,21,19.80
2016,04,08,13,22,19.80
2016,04,08,13,23,19.80
2016,04,08,13,24,19.80
2016,04,08,13,25,19.80
2016,04,08,13,26,19.80
2016,04,08,13,27,19.80
2016,04,08,13,28,19.90
2016,04,08,13,29,20.00
2016,04,08,13,30,20.00
2016,04,08,13,31,20.10
2016,04,08,13,32,20.20
2016,04,08,13,33,20.30
2016,04,08,13,34,20.40
2016,04,08,13,35,20.50
2016,04,08,13,36,20.50
2016,04,08,13,37,20.50
2016,04,08,13,38,20.50
2016,04,08,13,39,20.50
2016,04,08,13,40,20.60
2016,04,08,13,41,20.60
2016,04,08,13,42,20.60
2016,04,08,13,43,20.50
2016,04,08,13,44,20.40
2016,04,08,13,45,20.50
2016,04,08,13,46,20.50
2016,04,08,13,47,20.60
2016,04,08,13,48,20.50
2016,04,08,13,49,20.50
2016,04,08,13,50,20.40
2016,04,08,13,51,20.40
2016,04,08,13,52,20.40
2016,04,08,13,53,20.50
2016,04,08,13,54,20.50
2016,04,08,13,55,20.50
2016,04,08,13,56,20.50
2016,04,08,13,57,20.60
2016,04,08,13,58,20.60
2016,04,08,13,59,20.70
2016,04,08,14,00,20.80
2016,04,08,14,01,20.80
2016,04,08,14,02,20.80
2016,04,08,14,03,20.80
2016,04,08,14,04,20.80
2016,04,08,14,05,20.80
2016,04,08,14,06,20.90
2016,04,08,14,07,20.90
2016,04,08,14,08,21.00
2016,04,08,14,09,21.00
2016,04,08,14,10,21.10
2016,04,08,14,11,21.20
2016,04,08,14,12,21.30
2016,04,08,14,13,21.30
2016,04,08,14,14,21.40
2016,04,08,14,15,21.50
2016,04,08,14,16,21.60
2016,04,08,14,17,21.50
2016,04,08,14,18,21.50
2016,04,08,14,19,21.40
2016,04,08,14,20,21.40
2016,04,08,14,21,21.30
2016,04,08,14,22,21.30
2016,04,08,14,23,21.30
2016,04,08,14,24,21.30
2016,04,08,14,25,21.30
2016,04,08,14,26,21.40
2016,04,08,14,27,21.40
2016,04,08,14,28,21.40
2016,04,08,14,29,21.40
2016,04,08,14,30,21.40
2016,04,08,14,31,21.40
2016,04,08,14,32,21.40
2016,04,08,14,33,21.50
2016,04,08,14,34,21.50
2016,04,08,14,35,21.50
2016,04,08,14,36,21.50
2016,04,08,14,37,21.50
2016,04,08,14,38,21.50
2016,04,08,14,39,21.40
2016,04,08,14,40,21.40
2016,04,08,14,41,21.40
2016,04,08,14,42,21.40
2016,04,08,14,43,21.30
2016,04,08,14,44,21.30
2016,04,08,14,45,21.30
2016,04,08,14,46,21.30
2016,04,08,14,47,21.30
2016,04,08,14,48,21.30
2016,04,08,14,49,21.20
2016,04,08,14,50,21.00
2016,04,08,14,51,20.80
2016,04,08,14,52,20.70
2016,04,08,14,53,20.60
2016,04,08,14,54,20.60
2016,04,08,14,55,20.50
2016,04,08,14,56,20.40
2016,04,08,14,57,20.30
2016,04,08,14,58,20.20
2016,04,08,14,59,20.10
2016,04,08,15,00,20.00
2016,04,08,15,01,19.90
2016,04,08,15,02,19.80
2016,04,08,15,03,19.80
2016,04,08,15,04,19.80
2016,04,08,15,05,19.80
2016,04,08,15,06,19.80
2016,04,08,15,07,19.70
2016,04,08,15,08,19.60
2016,04,08,15,09,19.50
2016,04,08,15,10,19.40
2016,04,08,15,11,19.30
2016,04,08,15,12,19.30
2016,04,08,15,13,19.30
2016,04,08,15,14,19.20
2016,04,08,15,15,19.10
2016,04,08,15,16,19.10
2016,04,08,15,17,19.10
2016,04,08,15,18,19.10
2016,04,08,15,19,19.10
2016,04,08,15,20,19.10
2016,04,08,15,21,19.00
2016,04,08,15,22,19.00
2016,04,08,15,23,18.90
2016,04,08,15,24,18.90
2016,04,08,15,25,18.80
2016,04,08,15,26,18.80
2016,04,08,15,27,18.80
2016,04,08,15,28,18.80
2016,04,08,15,29,18.70
2016,04,08,15,30,18.70
2016,04,08,15,31,18.70
2016,04,08,15,32,18.80
2016,04,08,15,33,18.80
2016,04,08,15,34,18.90
2016,04,08,15,35,18.90
2016,04,08,15,36,18.90
2016,04,08,15,37,19.00
2016,04,08,15,38,19.00
2016,04,08,15,39,19.00
2016,04,08,15,40,19.00
2016,04,08,15,41,19.10
2016,04,08,15,42,19.10
2016,04,08,15,43,19.20
2016,04,08,15,44,19.20
2016,04,08,15,45,19.20
2016,04,08,15,46,19.30
2016,04,08,15,47,19.30
2016,04,08,15,48,19.30
2016,04,08,15,49,19.30
2016,04,08,15,50,19.30
2016,04,08,15,51,19.30
2016,04,08,15,52,19.30
2016,04,08,15,53,19.40
2016,04,08,15,54,19.40
2016,04,08,15,55,19.50
2016,04,08,15,56,19.60
2016,04,08,15,57,19.60
2016,04,08,15,58,19.70
2016,04,08,15,59,19.70
2016,04,08,16,00,19.70
2016,04,08,16,01,19.70
2016,04,08,16,02,19.70
2016,04,08,16,03,19.70
2016,04,08,16,04,19.80
2016,04,08,16,05,19.80
2016,04,08,16,06,19.90
2016,04,08,16,07,19.90
2016,04,08,16,08,20.00
2016,04,08,16,09,20.00
2016,04,08,16,10,20.10
2016,04,08,16,11,20.20
2016,04,08,16,12,20.20
2016,04,08,16,13,20.10
2016,04,08,16,14,20.10
2016,04,08,16,15,20.10
2016,04,08,16,16,20.00
2016,04,08,16,17,20.00
2016,04,08,16,18,20.00
2016,04,08,16,19,20.00
2016,04,08,16,20,19.90
2016,04,08,16,21,19.90
2016,04,08,16,22,19.90
2016,04,08,16,23,19.90
2016,04,08,16,24,19.90
2016,04,08,16,25,19.90
2016,04,08,16,26,19.90
2016,04,08,16,27,19.90
2016,04,08,16,28,19.90
2016,04,08,16,29,20.00
2016,04,08,16,30,20.00
2016,04,08,16,31,20.10
2016,04,08,16,32,20.10
2016,04,08,16,33,20.20
2016,04,08,16,34,20.20
2016,04,08,16,35,20.20
2016,04,08,16,36,20.30
2016,04,08,16,37,20.30
2016,04,08,16,38,20.30
2016,04,08,16,39,20.40
2016,04,08,16,40,20.40
2016,04,08,16,41,20.40
2016,04,08,16,42,20.40
2016,04,08,16,43,20.50
2016,04,08,16,44,20.50
2016,04,08,16,45,20.60
2016,04,08,16,46,20.60
2016,04,08,16,47,20.70
2016,04,08,16,48,20.70
2016,04,08,16,49,20.60
2016,04,08,16,50,20.60
2016,04,08,16,51,20.50
2016,04,08,16,52,20.40
2016,04,08,16,53,20.30
2016,04,08,16,54,20.30
2016,04,08,16,55,20.30
2016,04,08,16,56,20.20
2016,04,08,16,57,20.20
2016,04,08,16,58,20.20
2016,04,08,16,59,20.10
2016,04,08,17,00,20.10
2016,04,08,17,01,20.00
2016,04,08,17,02,19.90
2016,04,08,17,03,19.80
2016,04,08,17,04,19.80
2016,04,08,17,05,19.80
2016,04,08,17,06,19.70
2016,04,08,17,07,19.60
2016,04,08,17,08,19.60
2016,04,08,17,09,19.60
2016,04,08,17,10,19.50
2016,04,08,17,11,19.50
2016,04,08,17,12,19.40
2016,04,08,17,13,19.50
2016,04,08,17,14,19.50
2016,04,08,17,15,19.60
2016,04,08,17,16,19.60
2016,04,08,17,17,19.60
2016,04,08,17,18,19.60
2016,04,08,17,19,19.60
2016,04,08,17,20,19.60
2016,04,08,17,21,19.70
2016,04,08,17,22,19.70
2016,04,08,17,23,19.70
2016,04,08,17,24,19.70
2016,04,08,17,25,19.70
2016,04,08,17,26,19.70
2016,04,08,17,27,19.70
2016,04,08,17,28,19.80
2016,04,08,17,29,19.80
2016,04,08,17,30,19.80
2016,04,08,17,31,19.80
2016,04,08,17,32,19.80
2016,04,08,17,33,19.80
2016,04,08,17,34,19.80
2016,04,08,17,35,19.70
2016,04,08,17,36,19.70
2016,04,08,17,37,19.60